Temperature
14 14 15 15 13 11 13 13 14 14 14 15 15 15 15 15 15 15 15 15 16 16 15 15 15 15 15 15 15 16 16 15 16 16 16 16 15 15 15 15 15 15 15 15 15 15 14 14 15
14 14 15 14 11 12 13 13 13 13 14 15 15 15 14 14 15 15 15 15 15 16 15 15 15 15 15 15 15 15 15 15 15 15 15 15 15 15 15 15 15 15 15 15 15 14 14 14 14
13 14 14 10 11 12 13 13 12 13 14 14 14 14 14 14 14 15 15 15 15 15 15 15 15 15 15 15 15 15 15 15 15 15 15 15 15 15 15 15 15 15 15 15 15 15 14 14 14
13 14 12 10 11 11 12 13 12 13 14 14 14 13 13 13 14 14 15 15 15 15 15 15 15 15 15 15 15 15 15 15 15 15 15 15 15 15 15 15 15 15 14 14 14 14 14 14 14
13 13 10 10 11 11 11 12 12 12 12 13 13 12 13 13 14 14 14 14 15 15 15 15 15 15 14 15 15 15 15 15 15 15 15 15 15 15 15 15 14 14 14 14 14 14 14 14 14
13 10 9 10 11 11 11 12 12 12 12 12 12 12 12 13 14 14 14 14 14 14 14 14 14 14 14 14 14 14 14 15 15 15 14 14 14 14 14 14 14 14 14 14 14 14 14 14 14
11 8 9 10 10 11 11 11 11 11 11 12 12 12 12 13 13 13 13 13 14 14 14 14 14 14 14 14 14 14 14 14 14 14 14 14 14 14 14 14 14 14 14 14 14 14 14 13 13
11 8 9 9 10 11 11 11 11 11 11 12 12 11 12 13 13 13 13 13 13 13 13 13 13 13 13 13 14 14 14 14 14 14 14 14 14 14 14 14 14 14 14 14 13 13 13 13 13
11 8 9 9 10 10 10 10 11 11 11 11 11 11 12 12 12 12 13 13 13 13 13 13 13 13 13 13 13 13 13 13 13 13 13 13 13 13 14 13 13 13 13 13 13 13 13 13 13
10 8 9 9 9 9 9 10 10 10 10 10 10 11 11 12 12 12 12 13 13 13 13 13 13 13 13 13 13 13 13 13 13 13 13 13 13 13 13 13 13 13 13 13 13 13 13 13 13
8 8 9 9 9 9 9 9 9 10 9 10 10 11 11 11 12 12 12 12 12 12 12 12 12 13 12 13 13 13 13 13 13 13 13 13 13 13 13 13 13 13 13 13 13 13 13 13 12
8 8 8 9 9 9 9 9 9 9 10 10 10 10 11 11 11 11 11 11 12 12 12 12 12 12 12 12 12 12 12 12 12 12 12 12 12 12 12 12 12 12 12 12 12 12 12 12 12
7 8 8 8 9 8 8 8 8 8 9 10 10 10 10 11 11 11 11 11 11 11 12 12 12 12 12 12 12 12 12 12 12 12 12 12 12 12 12 12 12 12 12 12 12 12 12 12 12
7 7 7 8 8 8 8 7 7 8 9 9 9 9 10 10 10 10 11 11 11 11 11 11 11 11 11 11 11 11 11 12 12 12 12 12 12 12 12 12 12 11 11 11 11 11 11 11 11
7 7 7 7 8 8 8 7 7 8 8 8 9 9 9 9 10 10 10 11 11 11 11 11 11 11 11 11 11 11 11 11 11 11 11 11 11 11 11 11 11 11 11 11 11 11 11 11 11
7 7 7 7 7 7 8 8 8 8 8 8 8 9 9 9 9 10 10 10 10 10 10 10 10 10 11 11 11 11 11 11 11 11 11 11 11 11 11 11 11 11 10 10 10 10 10 10 10
6 6 7 7 7 7 7 7 7 8 8 7 8 8 9 9 9 9 10 10 10 10 10 10 10 10 10 10 10 10 10 10 10 10 10 11 10 10 10 10 10 10 10 10 10 10 10 10 10
6 6 6 6 6 6 6 5 6 7 7 7 7 7 8 8 9 9 9 9 9 9 9 10 10 10 10 10 10 10 10 10 10 10 10 10 10 10 10 10 9 9 9 9 9 9 9 9 9
6 6 6 6 6 6 5 5 6 6 6 6 6 6 7 7 8 8 8 9 9 9 9 9 9 9 9 9 9 9 9 9 10 10 9 9 9 9 9 9 9 9 9 9 9 9 9 8 8
6 6 5 5 6 6 5 5 5 5 5 6 5 5 6 7 7 8 8 8 8 9 9 9 9 9 9 9 9 9 9 9 9 9 9 9 9 9 9 9 9 8 8 8 8 8 8 8 7
6 6 6 5 5 5 5 6 6 5 5 5 5 6 6 6 7 7 7 8 8 8 8 8 8 8 8 8 8 8 9 9 9 9 9 9 9 8 8 8 8 8 8 8 8 8 8 7 7
6 6 6 5 5 4 5 5 5 5 5 5 5 5 6 6 6 7 7 7 7 7 8 8 8 8 8 7 8 8 8 8 8 8 8 8 8 8 8 8 8 8 8 8 8 7 7 7 7
5 5 5 5 4 4 4 4 5 4 5 5 4 5 5 5 6 6 6 6 7 7 7 7 7 7 7 7 7 7 7 7 7 7 8 8 8 7 7 7 7 7 7 7 7 7 7 6 6
5 4 4 3 3 4 4 4 4 3 4 4 4 4 5 5 5 6 6 6 6 6 6 6 6 6 6 6 6 6 6 7 7 7 7 7 7 7 7 7 7 7 7 7 7 7 6 6 6
4 4 3 3 3 3 3 3 4 4 4 3 3 4 4 4 5 5 5 5 5 6 6 6 6 6 6 6 6 6 6 6 6 6 6 6 6 6 6 6 6 6 6 6 6 6 6 6 6
4 4 4 4 3 3 3 3 4 4 3 3 3 4 4 4 4 4 4 5 5 5 5 5 6 6 6 6 5 5 5 5 5 5 5 6 6 6 6 6 6 6 5 5 5 5 6 5 5
4 3 3 2 2 2 3 2 3 3 3 3 3 3 3 3 3 4 4 4 4 5 5 5 5 5 5 5 5 5 5 5 5 5 5 5 5 5 5 5 5 5 5 5 5 5 5 5 5
3 2 1 2 3 4 4 3 4 3 3 2 2 2 2 3 3 3 3 4 4 4 4 5 5 5 4 5 4 4 4 4 4 4 4 5 5 4 5 4 4 4 4 4 4 4 4 4 4
3 2 2 1 2 3 3 4 3 3 2 1 1 2 2 2 2 2 3 3 3 3 4 4 4 4 4 4 4 4 4 4 4 4 4 4 4 4 4 4 4 4 4 4 4 4 4 4 4
2 2 1 2 2 1 2 3 3 1 1 1 1 1 2 2 2 2 2 2 3 3 3 3 3 3 3 3 3 4 3 4 4 4 3 3 3 3 3 3 3 3 3 3 3 3 3 3 3
Wind_Speed
10 6 2 4 5 3 4 5 3 2 2 1 1 3 5 4 4 3 1 2 3 4 3 6 9 10 10 10 10 10 10 11 12 12 11 11 12 11 11 12 12 11 11 12 12 12 12 13 13
4 3 4 5 4 3 6 4 4 3 2 1 2 2 2 1 1 1 1 0 3 4 4 5 9 9 10 10 10 9 10 11 11 11 11 11 11 11 11 11 11 11 11 11 11 11 12 13 12
3 4 4 4 4 6 6 3 4 1 0 1 1 1 1 1 0 1 1 2 3 3 4 5 8 9 9 10 10 9 9 10 10 10 10 10 10 10 10 10 11 11 11 11 11 11 12 12 12
3 4 4 3 5 5 4 2 2 0 2 2 2 1 1 2 0 1 1 3 4 4 4 5 7 8 8 9 9 9 8 9 10 9 9 9 10 9 9 9 10 10 10 10 11 11 11 11 11
4 4 3 1 5 4 3 3 1 1 1 1 1 1 1 2 2 2 3 4 5 4 4 5 7 7 8 9 9 8 8 8 9 9 9 8 9 9 9 9 9 9 9 10 10 11 11 10 10
4 4 3 4 6 4 3 2 1 1 1 1 1 1 2 1 3 2 3 3 4 4 4 4 6 7 7 8 9 8 8 7 8 9 8 8 8 8 8 8 9 8 8 9 9 10 10 10 10
4 4 3 4 3 3 2 1 1 2 1 2 2 2 1 0 1 1 2 3 4 4 4 4 4 5 6 6 7 8 7 7 8 8 8 8 8 8 8 8 8 8 8 8 8 9 9 8 8
4 4 2 3 4 4 2 1 0 1 2 1 2 4 3 2 1 2 3 3 3 4 4 4 5 5 5 5 5 6 6 6 6 7 7 7 7 7 7 7 7 8 8 8 7 8 8 7 7
3 3 3 5 5 3 1 1 3 1 0 1 1 2 2 2 3 4 3 3 2 3 3 3 4 4 4 4 4 5 6 5 5 6 7 6 5 5 5 6 6 8 8 8 7 7 7 7 6
3 3 5 3 3 2 1 1 2 2 1 1 2 2 2 3 4 5 3 2 1 2 2 2 2 3 4 3 3 3 4 4 5 5 6 5 5 5 5 6 6 7 7 7 7 7 7 6 5
3 4 2 1 2 1 1 2 1 1 2 3 3 3 2 2 3 4 3 3 3 2 1 1 1 2 3 3 2 3 3 3 4 5 5 5 5 5 4 4 5 6 7 6 5 6 5 5 4
1 2 2 2 1 1 2 2 2 3 5 3 3 2 1 1 3 4 4 3 2 1 1 0 1 2 2 2 1 2 2 2 3 4 5 5 3 3 3 3 3 4 4 4 4 4 4 4 4
1 2 2 2 2 1 2 3 3 5 6 4 2 1 2 3 3 4 4 3 2 2 1 1 1 1 1 2 1 1 1 2 3 4 5 5 3 2 2 2 3 3 3 4 3 3 3 3 3
1 1 3 4 3 1 2 4 3 6 3 2 2 3 3 4 4 3 2 3 3 3 2 2 2 1 1 1 1 1 1 2 3 3 4 5 4 3 3 2 2 2 3 3 2 2 2 1 2
1 2 4 2 1 1 0 5 5 5 1 2 3 4 4 4 3 4 4 4 4 3 2 2 2 1 1 1 2 2 2 2 3 3 4 5 5 4 3 2 2 2 3 3 2 2 2 1 1
2 1 3 3 1 1 1 6 4 2 1 3 4 4 4 4 4 5 4 4 3 3 3 3 2 1 1 1 2 1 2 3 2 3 4 4 5 5 4 3 2 2 3 3 2 1 1 0 0
2 1 3 4 1 1 1 7 5 3 2 5 5 5 4 3 2 3 3 4 4 3 3 2 1 2 2 2 2 1 2 2 2 3 3 4 4 5 4 3 3 3 2 3 2 1 1 1 0
3 3 3 4 3 2 4 9 9 5 4 5 5 4 3 3 4 4 3 2 2 2 2 1 1 2 2 2 1 1 2 1 2 3 3 4 4 5 4 3 3 3 2 2 2 2 1 1 0
2 3 5 5 3 3 6 9 10 6 3 4 4 4 3 4 4 4 3 1 1 0 0 1 1 1 2 2 2 2 3 2 2 3 3 4 4 4 4 3 3 3 3 3 3 3 2 1 1
2 3 4 4 3 2 5 8 8 5 3 2 2 4 4 5 5 5 4 2 1 1 1 1 2 2 2 2 2 2 2 2 2 2 3 4 4 4 4 4 4 3 3 3 4 3 2 1 1
2 4 3 3 5 2 4 6 3 2 1 2 3 3 4 4 5 6 5 3 2 2 2 2 2 2 2 2 2 2 1 1 2 3 3 3 4 4 5 5 4 4 4 4 4 4 3 3 2
3 2 2 2 2 3 2 4 5 3 4 4 5 5 6 6 5 5 5 4 4 3 3 2 2 2 2 2 2 4 4 4 4 3 3 3 4 5 5 5 5 4 4 4 4 3 3 4 3
3 2 1 1 1 2 1 2 6 3 4 5 5 6 7 6 6 6 5 5 4 4 2 2 2 2 2 2 3 4 4 4 3 2 4 4 4 4 4 5 4 4 4 4 4 3 4 4 4
0 2 3 4 3 2 2 3 6 3 3 5 5 6 7 7 7 6 5 5 5 4 2 1 2 3 2 2 3 4 5 4 4 3 4 4 3 3 4 4 4 4 4 4 4 4 5 5 4
3 4 4 5 4 5 1 2 7 4 3 3 5 7 7 6 6 6 6 6 6 5 4 2 2 3 2 2 3 3 4 4 4 4 5 4 3 3 4 4 4 4 4 4 4 4 5 5 5
0 3 4 2 4 5 2 5 6 3 2 3 4 5 6 7 6 6 6 5 5 5 4 3 3 2 2 2 2 2 2 2 2 3 3 4 4 4 4 4 4 4 4 4 3 3 4 4 4
2 1 2 3 0 3 5 6 6 2 4 5 6 7 8 8 8 7 6 6 5 5 5 4 3 3 2 2 2 2 2 2 3 3 3 3 3 3 3 4 4 3 3 4 4 4 4 4 4
2 4 4 3 0 4 6 5 4 5 5 6 6 7 8 8 8 8 7 6 6 5 5 4 2 3 2 1 1 2 2 3 2 2 3 3 2 2 3 3 3 3 3 3 3 3 3 4 4
2 2 3 2 2 2 4 6 3 3 3 4 6 6 6 7 8 7 7 6 6 5 5 4 3 3 2 2 1 1 1 2 1 1 2 2 2 2 3 3 3 3 3 3 3 3 3 4 4
2 3 4 2 3 3 3 7 2 2 3 3 6 7 6 7 7 7 7 6 6 5 5 4 4 3 3 2 1 1 0 1 1 1 1 1 1 2 2 3 3 3 3 3 4 4 4 4 5
Wind_Direction
346 351 46 55 61 62 230 237 208 199 205 216 130 140 150 154 157 176 14 122 109 134 148 145 138 138 135 127 120 122 127 127 127 126 126 126 125 123 120 118 119 116 114 117 119 117 116 113 109
350 5 51 64 111 199 247 232 205 211 202 112 51 92 106 169 63 86 53 296 114 122 117 131 134 133 135 130 124 120 121 125 127 127 127 127 128 127 124 121 122 120 117 117 122 120 119 116 113
18 45 81 89 152 197 220 210 200 245 2 112 81 43 137 205 109 196 270 149 107 104 102 114 129 132 133 133 128 126 121 125 125 125 129 128 129 130 128 125 125 124 122 120 118 119 120 120 118
62 49 59 96 216 226 227 246 196 182 358 29 114 13 318 14 294 226 144 117 114 101 94 115 119 131 129 131 132 132 124 129 130 126 126 130 129 130 129 127 128 129 129 126 121 117 118 119 119
57 78 79 237 241 248 256 270 227 170 230 350 119 165 274 355 28 82 109 113 119 110 100 119 123 121 126 129 132 135 131 135 135 133 129 127 131 131 129 129 132 133 133 131 129 125 120 123 123
60 74 123 221 241 265 280 282 227 234 238 285 135 172 231 41 61 77 105 106 106 113 103 117 127 119 119 127 133 132 132 133 137 135 132 131 130 135 134 131 136 138 138 137 135 131 127 123 127
110 117 181 205 233 264 269 318 186 223 234 240 189 168 236 95 56 100 92 92 90 94 90 82 100 111 115 110 133 133 134 131 134 133 130 131 131 129 133 133 136 135 138 141 141 138 132 128 127
122 119 173 209 214 243 308 349 360 218 251 296 149 175 225 231 151 106 86 82 87 79 81 78 77 84 93 98 117 128 132 132 133 131 124 127 132 132 130 135 142 141 137 133 135 135 132 130 127
95 101 208 209 202 230 345 348 333 312 215 340 274 222 277 133 126 108 85 69 79 73 70 71 73 71 79 88 100 120 127 122 123 124 113 111 110 116 123 126 137 142 140 134 128 125 125 121 120
105 181 219 211 192 206 307 312 308 349 359 321 299 340 13 126 132 133 132 139 125 102 93 78 78 81 79 87 94 93 111 112 107 108 108 105 102 105 111 117 121 129 131 130 126 119 113 108 105
146 197 219 243 241 229 286 311 300 187 256 241 257 289 357 136 139 155 173 179 186 162 134 111 87 83 80 71 91 87 93 99 105 107 105 104 100 99 99 104 115 113 113 111 111 102 99 97 101
159 249 233 260 303 288 268 289 300 238 238 248 260 255 246 201 177 187 196 202 194 149 173 138 86 74 67 77 91 106 94 107 111 117 114 109 103 96 98 101 103 103 110 107 103 100 95 94 94
204 265 301 295 320 281 276 260 260 259 261 270 291 268 248 237 215 207 204 204 193 198 208 213 151 116 63 77 95 125 122 143 133 126 129 125 121 123 110 114 101 100 107 107 107 105 100 98 101
240 295 300 302 290 283 245 270 249 260 260 277 275 259 258 251 226 219 212 208 207 214 217 221 181 163 106 90 185 164 157 150 141 138 142 141 134 134 131 132 125 119 114 118 122 128 125 124 123
4 338 323 302 264 249 266 291 234 246 273 282 280 270 265 253 231 223 218 215 215 219 219 216 198 171 137 160 198 174 172 155 161 158 156 152 146 143 140 148 155 151 128 115 113 100 105 113 112
24 18 305 302 330 309 159 263 252 246 227 283 290 279 271 247 229 237 227 222 226 222 218 225 217 177 182 193 198 177 176 170 177 166 162 161 154 153 155 164 175 162 140 132 140 128 112 135 202
22 288 267 294 309 9 219 259 276 290 281 282 288 291 281 283 286 268 243 223 222 219 218 220 207 192 201 199 185 160 162 170 183 175 174 175 164 164 168 173 178 164 154 157 160 154 160 171 272
249 264 264 270 289 300 263 265 281 285 260 272 289 297 288 292 289 290 276 248 228 225 218 189 219 199 192 183 172 144 158 178 185 186 188 181 178 175 170 172 173 170 165 171 168 166 149 160 216
211 247 270 276 292 294 266 275 282 282 273 281 297 305 297 295 300 311 308 284 267 265 129 162 213 216 187 186 185 182 194 200 196 194 188 186 181 179 175 173 175 183 185 189 178 171 155 123 92
226 261 276 295 323 300 287 284 279 267 246 254 297 315 309 316 329 329 328 324 272 260 248 226 225 235 220 209 190 179 181 196 205 196 193 190 187 186 185 179 186 193 194 190 185 176 171 173 151
260 221 246 280 323 337 320 307 302 314 340 356 350 326 322 314 314 320 323 312 317 298 264 255 248 249 241 215 162 140 142 185 207 203 195 200 196 196 200 197 194 194 192 198 199 193 189 200 211
270 247 243 279 336 308 7 302 290 318 332 345 345 343 332 327 318 320 324 320 313 294 283 267 253 245 243 210 192 193 201 211 221 214 205 205 200 202 203 197 195 194 197 202 208 209 203 195 213
229 317 319 287 172 324 334 239 291 344 323 317 328 332 328 326 327 325 322 313 315 312 301 278 255 245 237 217 204 201 213 219 219 208 199 203 202 204 200 199 197 199 205 207 211 214 208 209 214
222 34 53 50 65 316 258 195 284 271 271 308 324 328 331 334 338 333 335 339 335 333 326 305 267 263 248 223 212 207 209 216 217 220 210 209 207 201 199 199 199 203 206 211 215 217 215 218 218
48 67 23 3 2 266 267 222 257 266 275 285 304 319 331 343 347 347 352 349 341 340 335 314 280 275 260 230 223 222 213 210 218 226 218 213 211 214 209 209 208 209 211 212 213 217 220 221 220
344 117 143 216 257 289 300 245 260 278 313 326 331 333 348 355 354 350 348 341 332 330 326 310 295 287 278 243 235 228 211 206 225 231 224 218 218 217 207 207 213 217 211 214 214 226 231 228 228
94 109 141 132 200 284 278 288 303 321 352 357 360 1 355 351 348 344 343 341 336 331 321 304 297 299 290 260 243 223 215 212 225 241 222 216 222 218 201 202 209 216 215 214 216 224 232 231 236
118 135 90 103 181 285 295 284 276 306 324 341 350 352 347 346 343 340 338 337 337 333 326 333 321 298 289 273 251 249 228 222 220 229 226 213 210 206 201 207 212 213 214 217 220 228 230 229 237
100 93 105 121 170 194 288 280 235 265 310 317 326 334 336 335 332 330 331 332 334 338 338 346 344 339 338 316 279 257 243 228 217 229 237 221 207 203 204 205 213 217 219 217 221 234 232 230 237
180 173 152 169 240 208 237 272 285 283 311 320 324 329 327 328 328 328 330 335 341 343 341 343 343 336 326 330 345 331 274 223 203 250 257 223 212 212 210 208 216 226 226 222 224 233 236 231 234
Height
1484 1485 1486 1489 1493 1502 1500 1493 1489 1488 1488 1487 1487 1487 1488 1491 1494 1498 1493 1491 1492 1494 1496 1498 1500 1502 1503 1504 1505 1506 1508 1509 1510 1512 1513 1514 1515 1516 1517 1518 1518 1519 1520 1521 1521 1522 1523 1523 1524
1484 1485 1488 1488 1497 1504 1498 1490 1488 1486 1486 1486 1486 1486 1487 1488 1490 1490 1489 1490 1492 1494 1495 1497 1499 1501 1502 1504 1505 1506 1508 1509 1510 1512 1513 1514 1515 1516 1517 1518 1518 1519 1520 1521 1521 1522 1523 1524 1524
1484 1485 1488 1491 1498 1499 1492 1486 1486 1485 1485 1485 1486 1486 1487 1488 1488 1489 1489 1490 1492 1493 1495 1496 1499 1500 1502 1503 1505 1506 1507 1509 1510 1511 1513 1514 1515 1516 1517 1518 1519 1519 1520 1521 1522 1523 1523 1524 1525
1484 1486 1488 1495 1495 1492 1487 1485 1484 1485 1485 1485 1486 1487 1487 1488 1488 1488 1489 1490 1491 1492 1494 1496 1498 1499 1501 1502 1504 1505 1507 1508 1510 1511 1512 1514 1515 1515 1516 1518 1519 1520 1520 1521 1522 1523 1523 1524 1525
1484 1486 1492 1497 1493 1489 1486 1485 1484 1484 1485 1485 1486 1486 1487 1488 1487 1487 1488 1489 1490 1492 1494 1495 1497 1498 1500 1502 1503 1505 1506 1508 1509 1510 1512 1513 1514 1515 1516 1517 1518 1520 1520 1521 1522 1523 1524 1524 1525
1485 1487 1496 1497 1491 1487 1485 1484 1484 1484 1485 1485 1486 1486 1486 1486 1486 1487 1487 1489 1490 1491 1493 1495 1496 1498 1499 1500 1502 1504 1505 1507 1508 1510 1511 1513 1514 1515 1516 1517 1518 1519 1520 1521 1522 1523 1523 1524 1525
1486 1490 1494 1493 1491 1488 1486 1484 1484 1484 1484 1485 1485 1486 1485 1485 1486 1486 1487 1488 1490 1491 1492 1494 1495 1497 1498 1499 1501 1502 1504 1505 1507 1509 1510 1512 1513 1514 1515 1516 1518 1519 1520 1520 1521 1522 1523 1524 1524
1484 1489 1492 1493 1491 1488 1485 1484 1484 1484 1484 1484 1484 1484 1484 1484 1485 1485 1486 1487 1489 1490 1491 1493 1494 1495 1497 1498 1499 1501 1502 1504 1506 1507 1509 1510 1512 1513 1514 1515 1517 1518 1519 1520 1521 1522 1522 1523 1524
1484 1492 1492 1490 1489 1486 1484 1484 1484 1484 1483 1483 1482 1483 1483 1483 1483 1484 1485 1486 1487 1488 1490 1491 1493 1494 1495 1497 1498 1500 1501 1503 1504 1506 1508 1509 1511 1512 1513 1514 1516 1517 1518 1519 1520 1521 1521 1522 1523
1484 1491 1487 1485 1484 1484 1484 1484 1484 1483 1483 1482 1481 1481 1481 1481 1481 1482 1482 1483 1485 1486 1488 1490 1491 1492 1493 1495 1496 1497 1499 1501 1503 1504 1506 1508 1509 1511 1512 1513 1514 1515 1516 1517 1518 1519 1520 1521 1521
1484 1486 1484 1483 1483 1483 1483 1483 1483 1483 1482 1481 1480 1479 1479 1480 1480 1480 1481 1482 1483 1485 1486 1488 1489 1491 1492 1493 1494 1496 1498 1499 1501 1503 1505 1506 1508 1509 1511 1512 1513 1514 1515 1516 1517 1518 1518 1519 1520
1484 1484 1483 1482 1482 1482 1483 1482 1483 1482 1480 1480 1479 1479 1478 1478 1478 1479 1480 1481 1482 1484 1485 1486 1488 1489 1490 1492 1493 1493 1495 1497 1499 1501 1503 1504 1506 1507 1509 1510 1511 1512 1513 1514 1515 1516 1516 1517 1518
1483 1483 1482 1482 1482 1482 1481 1481 1481 1479 1478 1478 1477 1477 1476 1476 1476 1478 1479 1480 1481 1482 1483 1484 1486 1487 1488 1490 1491 1492 1493 1495 1497 1499 1500 1502 1504 1505 1507 1508 1509 1510 1511 1512 1513 1514 1515 1515 1516
1483 1482 1482 1481 1480 1480 1481 1480 1480 1476 1477 1476 1475 1475 1475 1474 1474 1475 1476 1478 1479 1480 1481 1483 1484 1485 1486 1488 1489 1490 1491 1493 1495 1497 1498 1500 1502 1503 1505 1506 1507 1508 1509 1510 1511 1512 1513 1513 1514
1482 1483 1482 1480 1479 1479 1480 1479 1477 1475 1475 1474 1474 1473 1473 1473 1473 1473 1474 1475 1477 1478 1479 1481 1482 1483 1484 1486 1487 1488 1489 1491 1493 1494 1496 1497 1499 1501 1502 1503 1504 1505 1506 1507 1509 1509 1510 1511 1511
1483 1485 1485 1480 1479 1479 1482 1479 1474 1473 1473 1472 1472 1471 1470 1470 1471 1472 1472 1473 1475 1476 1477 1478 1479 1480 1481 1483 1484 1485 1487 1488 1490 1492 1493 1495 1496 1498 1499 1500 1501 1502 1504 1505 1506 1506 1507 1508 1508
1486 1488 1486 1483 1480 1479 1481 1478 1473 1472 1472 1471 1469 1468 1468 1468 1469 1469 1470 1471 1472 1473 1474 1475 1476 1477 1479 1480 1481 1482 1484 1486 1487 1489 1491 1492 1493 1495 1496 1497 1498 1499 1500 1501 1502 1503 1504 1504 1504
1487 1487 1486 1484 1480 1480 1481 1477 1471 1470 1470 1469 1467 1466 1466 1465 1465 1466 1467 1468 1469 1470 1471 1471 1473 1474 1476 1477 1478 1479 1481 1483 1484 1486 1487 1489 1490 1492 1493 1494 1495 1496 1497 1498 1499 1500 1501 1501 1501
1485 1486 1486 1483 1480 1480 1479 1475 1470 1467 1468 1467 1465 1464 1463 1463 1463 1463 1463 1464 1465 1466 1467 1468 1470 1471 1472 1473 1474 1475 1477 1479 1481 1483 1484 1485 1487 1488 1490 1490 1491 1493 1493 1494 1495 1496 1497 1497 1498
1484 1486 1485 1482 1479 1480 1479 1475 1468 1466 1466 1465 1465 1464 1463 1462 1461 1461 1460 1461 1461 1462 1463 1465 1467 1468 1469 1470 1471 1473 1474 1475 1477 1479 1480 1482 1483 1484 1486 1486 1487 1489 1490 1491 1491 1492 1492 1493 1494
1483 1484 1484 1484 1481 1479 1480 1472 1468 1466 1465 1464 1463 1463 1462 1461 1460 1459 1458 1458 1458 1458 1460 1461 1463 1465 1465 1466 1467 1469 1470 1471 1473 1474 1476 1478 1479 1481 1482 1483 1484 1485 1486 1486 1487 1488 1489 1489 1490
1483 1481 1482 1483 1485 1486 1484 1481 1469 1468 1466 1464 1464 1462 1461 1460 1459 1458 1457 1456 1457 1458 1458 1459 1460 1461 1462 1463 1464 1465 1466 1467 1468 1470 1472 1474 1476 1477 1478 1479 1480 1481 1482 1483 1483 1484 1485 1486 1486
1482 1481 1482 1483 1486 1489 1486 1486 1474 1471 1468 1465 1464 1462 1461 1460 1458 1457 1456 1456 1456 1456 1456 1457 1458 1458 1459 1460 1460 1461 1462 1463 1464 1466 1467 1469 1471 1473 1474 1475 1476 1477 1478 1479 1480 1480 1481 1482 1482
1482 1483 1485 1489 1490 1491 1487 1489 1479 1474 1469 1466 1464 1463 1461 1459 1458 1456 1456 1455 1454 1454 1454 1454 1455 1455 1456 1457 1457 1457 1458 1459 1461 1461 1463 1464 1466 1468 1469 1471 1472 1473 1474 1475 1476 1477 1477 1478 1478
1483 1488 1496 1496 1501 1494 1488 1487 1479 1469 1468 1467 1465 1463 1461 1459 1457 1455 1454 1453 1452 1452 1452 1452 1452 1452 1453 1454 1454 1455 1455 1456 1457 1458 1459 1460 1461 1462 1464 1466 1467 1468 1469 1470 1471 1472 1473 1473 1474
1486 1488 1496 1497 1501 1495 1488 1485 1474 1468 1467 1466 1464 1463 1460 1458 1457 1455 1454 1453 1451 1450 1450 1450 1449 1449 1450 1450 1451 1452 1452 1453 1454 1454 1455 1456 1457 1458 1459 1461 1462 1463 1464 1465 1467 1468 1468 1469 1469
1487 1491 1492 1499 1504 1501 1489 1484 1473 1467 1466 1465 1463 1461 1460 1458 1457 1455 1453 1451 1450 1449 1448 1448 1447 1447 1447 1447 1447 1448 1449 1450 1450 1451 1452 1452 1453 1454 1455 1456 1457 1458 1459 1460 1462 1462 1463 1463 1464
1488 1491 1497 1499 1498 1495 1487 1482 1476 1468 1466 1465 1464 1462 1461 1459 1457 1455 1453 1450 1449 1448 1447 1446 1445 1444 1444 1444 1445 1445 1446 1447 1447 1447 1448 1449 1449 1450 1450 1451 1452 1453 1454 1456 1457 1457 1458 1459 1459
1491 1493 1495 1500 1500 1497 1491 1479 1470 1469 1467 1466 1464 1462 1461 1459 1457 1454 1452 1450 1448 1446 1445 1443 1442 1442 1441 1442 1442 1442 1443 1444 1444 1444 1445 1445 1446 1446 1446 1447 1448 1449 1450 1451 1452 1452 1453 1454 1454
1489 1491 1495 1497 1499 1501 1497 1483 1468 1468 1466 1465 1463 1461 1459 1458 1456 1454 1451 1448 1446 1444 1443 1441 1440 1439 1439 1439 1439 1439 1440 1440 1440 1441 1442 1442 1442 1443 1443 1443 1444 1445 1445 1446 1447 1448 1449 1449 1449